EWG943 EDDM-EDDH

Flight info

Callsign EWG943
Flight time 1h 1m
Altitude 36000
Route INPUD2N/26R INPUD Y102 UPALA M726 NARUS DCT ABGUS DCT DIRBO/N0382F230 T902 RARUP RARUP6A
Aircraft A320/M-SDE3FGHIRWY/LB1

Departure

Time 2026-05-07 17:49
Airport Munich Airport (EDDM)

Arrival

Time 2026-05-07 18:50
Airport Hamburg Helmut Schmidt Airport (EDDH)
Time Latitude Longitude Altitude Speed Heading
2026-05-07 17:13 48.35544 11.79279 1467 ft 0 kts 263°
2026-05-07 17:36 48.35544 11.79282 1460 ft 2 kts 263°
2026-05-07 17:36 48.35547 11.79320 1459 ft 3 kts 263°
2026-05-07 17:36 48.35549 11.79352 1461 ft 4 kts 264°
2026-05-07 17:37 48.35552 11.79392 1462 ft 4 kts 270°
2026-05-07 17:37 48.35548 11.79430 1467 ft 4 kts 312°
2026-05-07 17:37 48.35528 11.79442 1458 ft 4 kts 353°
2026-05-07 17:37 48.35522 11.79443 1459 ft 0 kts 353°
2026-05-07 17:41 48.35584 11.79439 1463 ft 15 kts
2026-05-07 17:41 48.35685 11.79480 1464 ft 16 kts 358°
2026-05-07 17:41 48.35800 11.79459 1463 ft 17 kts 352°
2026-05-07 17:41 48.35915 11.79494 1466 ft 18 kts 31°
2026-05-07 17:42 48.36024 11.79494 1461 ft 0 kts 351°
2026-05-07 17:44 48.36063 11.79485 1460 ft 11 kts 352°
2026-05-07 17:44 48.36141 11.79470 1468 ft 12 kts 354°
2026-05-07 17:45 48.36214 11.79520 1466 ft 13 kts 63°
2026-05-07 17:45 48.36230 11.79659 1468 ft 14 kts 84°
2026-05-07 17:45 48.36241 11.79823 1468 ft 19 kts 84°
2026-05-07 17:45 48.36257 11.80026 1468 ft 22 kts 83°
2026-05-07 17:46 48.36275 11.80270 1463 ft 24 kts 83°
2026-05-07 17:46 48.36296 11.80527 1463 ft 25 kts 82°
2026-05-07 17:46 48.36317 11.80796 1466 ft 26 kts 83°
2026-05-07 17:46 48.36339 11.81074 1458 ft 27 kts 83°
2026-05-07 17:47 48.36361 11.81362 1467 ft 28 kts 83°
2026-05-07 17:47 48.36385 11.81658 1466 ft 29 kts 83°
2026-05-07 17:47 48.36396 11.81916 1466 ft 16 kts 99°
2026-05-07 17:47 48.36423 11.82012 1463 ft 11 kts
2026-05-07 17:48 48.36504 11.81999 1466 ft 13 kts 353°
2026-05-07 17:48 48.36615 11.81980 1466 ft 24 kts 354°
2026-05-07 17:48 48.36658 11.81799 1466 ft 23 kts 261°
2026-05-07 17:48 48.36642 11.81540 1460 ft 34 kts 266°
2026-05-07 17:49 48.36594 11.80815 1461 ft 104 kts 264°
2026-05-07 17:49 48.36495 11.79444 1462 ft 157 kts 264°
2026-05-07 17:49 48.36380 11.77635 1692 ft 184 kts 261°
2026-05-07 17:49 48.36183 11.75699 2316 ft 188 kts 265°
2026-05-07 17:50 48.36036 11.73768 3188 ft 183 kts 266°
2026-05-07 17:50 48.35897 11.71834 3692 ft 195 kts 265°
2026-05-07 17:50 48.35763 11.69689 3985 ft 215 kts 271°
2026-05-07 17:50 48.36161 11.67472 4536 ft 226 kts 301°
2026-05-07 17:51 48.37277 11.65780 5228 ft 237 kts 329°
2026-05-07 17:51 48.38888 11.65046 5969 ft 245 kts 346°
2026-05-07 17:51 48.40560 11.64563 6739 ft 249 kts 346°
2026-05-07 17:51 48.42288 11.64067 6991 ft 251 kts 346°
2026-05-07 17:52 48.44055 11.63555 7045 ft 267 kts 346°
2026-05-07 17:52 48.45874 11.63024 7054 ft 271 kts 346°
2026-05-07 17:52 48.47750 11.62473 7079 ft 274 kts 345°
2026-05-07 17:52 48.49561 11.61645 7829 ft 275 kts 337°
2026-05-07 17:53 48.51369 11.60691 8764 ft 277 kts 336°
2026-05-07 17:53 48.53193 11.59708 9617 ft 281 kts 336°
2026-05-07 17:53 48.55058 11.58694 10349 ft 289 kts 336°
2026-05-07 17:53 48.57029 11.57611 10640 ft 313 kts 336°
2026-05-07 17:54 48.59130 11.56458 11114 ft 326 kts 337°
2026-05-07 17:54 48.61287 11.55284 11855 ft 332 kts 337°
2026-05-07 17:54 48.63535 11.54427 12596 ft 339 kts 348°
2026-05-07 17:54 48.65888 11.53914 13353 ft 343 kts 348°
2026-05-07 17:55 48.68270 11.53397 14068 ft 347 kts 349°
2026-05-07 17:55 48.70664 11.52881 14736 ft 350 kts 349°
2026-05-07 17:55 48.73081 11.52361 15417 ft 352 kts 349°
2026-05-07 17:55 48.75524 11.51838 16102 ft 355 kts 348°
2026-05-07 17:56 48.77973 11.51313 16786 ft 357 kts 348°
2026-05-07 17:56 48.80446 11.50780 17451 ft 360 kts 348°
2026-05-07 17:56 48.82895 11.50255 18109 ft 363 kts 348°
2026-05-07 17:56 48.85442 11.49708 18708 ft 366 kts 348°
2026-05-07 17:57 48.87975 11.49162 19273 ft 368 kts 349°
2026-05-07 17:57 48.89658 11.48797 19642 ft 370 kts 349°
2026-05-07 17:57 48.93055 11.48054 20380 ft 374 kts 349°
2026-05-07 17:57 48.95673 11.47481 20932 ft 377 kts 349°
2026-05-07 17:58 48.98277 11.46912 21452 ft 379 kts 349°
2026-05-07 17:58 49.00904 11.46343 21969 ft 382 kts 349°
2026-05-07 17:58 49.03547 11.45773 22480 ft 385 kts 349°
2026-05-07 17:58 49.06215 11.45194 22986 ft 388 kts 349°
2026-05-07 17:59 49.08898 11.44608 23475 ft 391 kts 349°
2026-05-07 17:59 49.11597 11.44016 23913 ft 394 kts 349°
2026-05-07 17:59 49.14326 11.43420 24330 ft 396 kts 349°
2026-05-07 17:59 49.17066 11.42821 24742 ft 399 kts 349°
2026-05-07 18:00 49.19778 11.42229 25152 ft 401 kts 349°
2026-05-07 18:00 49.22547 11.41622 25564 ft 403 kts 349°
2026-05-07 18:00 49.25326 11.41008 25973 ft 405 kts 349°
2026-05-07 18:00 49.28130 11.40388 26379 ft 407 kts 349°
2026-05-07 18:01 49.30737 11.39814 26743 ft 409 kts 349°
2026-05-07 18:01 49.33538 11.39196 27121 ft 411 kts 349°
2026-05-07 18:01 49.36380 11.38571 27494 ft 414 kts 349°
2026-05-07 18:01 49.39075 11.37977 27853 ft 416 kts 349°
2026-05-07 18:02 49.44767 11.36715 28589 ft 420 kts 349°
2026-05-07 18:02 49.47665 11.36071 28962 ft 422 kts 349°
2026-05-07 18:02 49.50569 11.35430 29290 ft 425 kts 349°
2026-05-07 18:03 49.53503 11.34780 29647 ft 427 kts 349°
2026-05-07 18:03 49.56450 11.34121 29992 ft 429 kts 349°
2026-05-07 18:03 49.59299 11.33481 30275 ft 431 kts 349°
2026-05-07 18:03 49.62240 11.32825 30544 ft 433 kts 350°
2026-05-07 18:04 49.65237 11.32159 30796 ft 436 kts 350°
2026-05-07 18:04 49.68246 11.31490 31045 ft 438 kts 350°
2026-05-07 18:04 49.71207 11.30828 31284 ft 440 kts 350°
2026-05-07 18:04 49.74287 11.30138 31556 ft 442 kts 350°
2026-05-07 18:05 49.77289 11.29464 31897 ft 442 kts 350°
2026-05-07 18:05 49.80322 11.28782 32233 ft 442 kts 350°
2026-05-07 18:05 49.83375 11.28094 32569 ft 442 kts 350°
2026-05-07 18:05 49.86422 11.27409 32895 ft 442 kts 350°
2026-05-07 18:06 49.89468 11.26725 33231 ft 442 kts 350°
2026-05-07 18:06 49.92515 11.26038 33563 ft 442 kts 350°
2026-05-07 18:06 49.95562 11.25349 33904 ft 443 kts 350°
2026-05-07 18:06 49.98606 11.24660 34201 ft 443 kts 350°
2026-05-07 18:07 50.01409 11.24079 34437 ft 443 kts 351°
2026-05-07 18:07 50.04472 11.23565 34691 ft 444 kts 353°
2026-05-07 18:07 50.07557 11.23135 34939 ft 445 kts 353°
2026-05-07 18:07 50.10646 11.22748 35175 ft 446 kts 354°
2026-05-07 18:08 50.13737 11.22367 35405 ft 446 kts 354°
2026-05-07 18:08 50.16839 11.21970 35629 ft 447 kts 353°
2026-05-07 18:08 50.19905 11.21553 35851 ft 447 kts 353°
2026-05-07 18:08 50.23013 11.21106 36001 ft 448 kts 353°
2026-05-07 18:09 50.26102 11.20649 36047 ft 445 kts 353°
2026-05-07 18:09 50.32259 11.19718 36049 ft 443 kts 353°
2026-05-07 18:10 50.38397 11.18795 36053 ft 443 kts 353°
2026-05-07 18:10 50.44545 11.17905 36052 ft 443 kts 353°
2026-05-07 18:11 50.50686 11.17025 36057 ft 443 kts 353°
2026-05-07 18:11 50.56824 11.16133 36056 ft 443 kts 353°
2026-05-07 18:12 50.62968 11.15226 36063 ft 443 kts 353°
2026-05-07 18:12 50.69059 11.14325 36070 ft 443 kts 353°
2026-05-07 18:13 50.75208 11.13415 36077 ft 443 kts 353°
2026-05-07 18:13 50.81351 11.12494 36082 ft 444 kts 353°
2026-05-07 18:14 50.87506 11.11585 36089 ft 444 kts 353°
2026-05-07 18:14 50.93648 11.10665 36094 ft 444 kts 353°
2026-05-07 18:15 50.99791 11.09745 36092 ft 443 kts 353°
2026-05-07 18:15 51.05945 11.08827 36092 ft 444 kts 353°
2026-05-07 18:16 51.12090 11.07901 36091 ft 444 kts 353°
2026-05-07 18:16 51.18233 11.06972 36089 ft 443 kts 353°
2026-05-07 18:17 51.24342 11.06046 36088 ft 443 kts 353°
2026-05-07 18:17 51.30481 11.05119 36085 ft 443 kts 353°
2026-05-07 18:18 51.36621 11.04197 36088 ft 443 kts 353°
2026-05-07 18:18 51.42759 11.03252 36089 ft 443 kts 353°
2026-05-07 18:19 51.48893 11.02317 36093 ft 443 kts 353°
2026-05-07 18:19 51.55034 11.01379 36093 ft 443 kts 353°
2026-05-07 18:20 51.60521 11.00530 36093 ft 443 kts 353°
2026-05-07 18:20 51.66560 10.99596 36099 ft 443 kts 353°
2026-05-07 18:21 51.72697 10.98647 36105 ft 443 kts 353°
2026-05-07 18:21 51.78839 10.97691 36103 ft 443 kts 353°
2026-05-07 18:22 51.84969 10.96733 36100 ft 443 kts 353°
2026-05-07 18:22 51.91108 10.95777 36076 ft 443 kts 353°
2026-05-07 18:22 51.94154 10.95303 35510 ft 447 kts 354°
2026-05-07 18:23 51.97243 10.94820 34910 ft 445 kts 354°
2026-05-07 18:23 52.00327 10.94340 34317 ft 444 kts 354°
2026-05-07 18:23 52.03395 10.93861 33660 ft 442 kts 354°
2026-05-07 18:23 52.06443 10.93383 32979 ft 440 kts 354°
2026-05-07 18:24 52.09486 10.92908 32311 ft 438 kts 354°
2026-05-07 18:24 52.12514 10.92438 31664 ft 436 kts 354°
2026-05-07 18:24 52.15535 10.91968 31025 ft 433 kts 354°
2026-05-07 18:24 52.18517 10.91500 30398 ft 430 kts 354°
2026-05-07 18:25 52.21488 10.91029 29714 ft 428 kts 354°
2026-05-07 18:25 52.24445 10.90556 28999 ft 426 kts 354°
2026-05-07 18:25 52.27386 10.90087 28304 ft 423 kts 354°
2026-05-07 18:25 52.30310 10.89622 27624 ft 421 kts 354°
2026-05-07 18:26 52.33222 10.89160 26964 ft 419 kts 354°
2026-05-07 18:26 52.36114 10.88704 26316 ft 416 kts 354°
2026-05-07 18:26 52.38989 10.88250 25680 ft 414 kts 353°
2026-05-07 18:26 52.41804 10.87803 25228 ft 408 kts 353°
2026-05-07 18:27 52.44572 10.87361 25078 ft 393 kts 353°
2026-05-07 18:27 52.47237 10.86936 25102 ft 376 kts 353°
2026-05-07 18:27 52.49818 10.86524 25105 ft 370 kts 353°
2026-05-07 18:27 52.52378 10.86113 25102 ft 369 kts 353°
2026-05-07 18:28 52.54934 10.85698 24891 ft 368 kts 353°
2026-05-07 18:28 52.57476 10.85285 24657 ft 367 kts 353°
2026-05-07 18:28 52.60013 10.84874 24420 ft 365 kts 353°
2026-05-07 18:28 52.62543 10.84465 24181 ft 364 kts 353°
2026-05-07 18:29 52.65054 10.84057 23943 ft 363 kts 353°
2026-05-07 18:29 52.67566 10.83649 23708 ft 362 kts 353°
2026-05-07 18:29 52.70071 10.83245 23438 ft 361 kts 353°
2026-05-07 18:29 52.72569 10.82844 23160 ft 359 kts 353°
2026-05-07 18:30 52.75053 10.82447 22628 ft 357 kts 353°
2026-05-07 18:30 52.77535 10.82049 21957 ft 360 kts 353°
2026-05-07 18:30 52.80034 10.81643 21301 ft 363 kts 353°
2026-05-07 18:30 52.82563 10.81231 20659 ft 366 kts 353°
2026-05-07 18:31 52.85103 10.80819 20028 ft 369 kts 353°
2026-05-07 18:31 52.87666 10.80400 19410 ft 371 kts 353°
2026-05-07 18:31 52.90243 10.79972 18808 ft 373 kts 353°
2026-05-07 18:31 52.92833 10.79546 18184 ft 374 kts 354°
2026-05-07 18:32 52.95427 10.79126 17504 ft 376 kts 354°
2026-05-07 18:32 52.98033 10.78705 16841 ft 377 kts 354°
2026-05-07 18:32 53.00649 10.78281 16189 ft 378 kts 354°
2026-05-07 18:32 53.03239 10.77860 15558 ft 378 kts 354°
2026-05-07 18:33 53.05862 10.77428 14942 ft 378 kts 354°
2026-05-07 18:33 53.08483 10.76994 14331 ft 378 kts 354°
2026-05-07 18:33 53.11095 10.76562 13708 ft 378 kts 354°
2026-05-07 18:33 53.13714 10.76129 13043 ft 377 kts 354°
2026-05-07 18:34 53.16318 10.75701 12378 ft 375 kts 354°
2026-05-07 18:34 53.18909 10.75275 11735 ft 373 kts 354°
2026-05-07 18:34 53.21465 10.74692 11106 ft 370 kts 345°
2026-05-07 18:34 53.23790 10.72903 10479 ft 367 kts 324°
2026-05-07 18:35 53.25678 10.70060 9860 ft 364 kts 315°
2026-05-07 18:35 53.27446 10.67063 9178 ft 357 kts 315°
2026-05-07 18:35 53.29127 10.64154 8521 ft 339 kts 315°
2026-05-07 18:35 53.30723 10.61362 7880 ft 325 kts 314°
2026-05-07 18:36 53.32250 10.58671 7299 ft 312 kts 315°
2026-05-07 18:36 53.33694 10.56104 7138 ft 296 kts 314°
2026-05-07 18:36 53.35064 10.53661 7098 ft 281 kts 314°
2026-05-07 18:36 53.36387 10.51297 7106 ft 277 kts 314°
2026-05-07 18:37 53.37704 10.48944 7112 ft 276 kts 314°
2026-05-07 18:37 53.38989 10.46606 7110 ft 277 kts 310°
2026-05-07 18:37 53.39849 10.43698 7112 ft 279 kts 283°
2026-05-07 18:37 53.40090 10.40465 7114 ft 280 kts 275°
2026-05-07 18:38 53.40227 10.37245 7113 ft 280 kts 274°
2026-05-07 18:38 53.40347 10.34163 7114 ft 280 kts 275°
2026-05-07 18:38 53.40469 10.30908 7112 ft 280 kts 274°
2026-05-07 18:38 53.40592 10.27654 7114 ft 280 kts 274°
2026-05-07 18:39 53.40713 10.24404 7114 ft 280 kts 274°
2026-05-07 18:39 53.40836 10.21146 7113 ft 280 kts 275°
2026-05-07 18:39 53.40958 10.17890 7113 ft 280 kts 274°
2026-05-07 18:39 53.41080 10.14640 7034 ft 278 kts 274°
2026-05-07 18:40 53.41201 10.11420 6564 ft 275 kts 274°
2026-05-07 18:40 53.41321 10.08233 5869 ft 274 kts 274°
2026-05-07 18:40 53.41444 10.05058 5238 ft 272 kts 274°
2026-05-07 18:40 53.41577 10.01898 5032 ft 273 kts 274°
2026-05-07 18:41 53.41713 9.98735 4644 ft 270 kts 274°
2026-05-07 18:41 53.41852 9.95596 4116 ft 271 kts 274°
2026-05-07 18:41 53.41989 9.92494 3999 ft 260 kts 274°
2026-05-07 18:41 53.42120 9.89564 4004 ft 243 kts 274°
2026-05-07 18:42 53.42242 9.86823 4009 ft 232 kts 274°
2026-05-07 18:42 53.42361 9.84159 3831 ft 229 kts 274°
2026-05-07 18:42 53.42478 9.81493 3518 ft 228 kts 274°
2026-05-07 18:42 53.42594 9.78851 3235 ft 227 kts 274°
2026-05-07 18:43 53.42720 9.76221 3022 ft 224 kts 279°
2026-05-07 18:43 53.43328 9.73868 3005 ft 219 kts 313°
2026-05-07 18:43 53.44388 9.72197 3009 ft 202 kts 323°
2026-05-07 18:43 53.45435 9.70779 3022 ft 191 kts 324°
2026-05-07 18:44 53.46537 9.69650 3010 ft 183 kts 346°
2026-05-07 18:44 53.47768 9.69531 3007 ft 174 kts 15°
2026-05-07 18:44 53.48801 9.70333 3000 ft 159 kts 42°
2026-05-07 18:44 53.49533 9.71670 3009 ft 154 kts 52°
2026-05-07 18:45 53.50237 9.73077 3015 ft 158 kts 52°
2026-05-07 18:45 53.50944 9.74489 3017 ft 158 kts 52°
2026-05-07 18:45 53.51638 9.75877 3016 ft 149 kts 53°
2026-05-07 18:45 53.52287 9.77176 2963 ft 142 kts 53°
2026-05-07 18:46 53.52909 9.78423 2839 ft 137 kts 53°
2026-05-07 18:46 53.53516 9.79641 2676 ft 135 kts 53°
2026-05-07 18:46 53.54119 9.80852 2494 ft 135 kts 53°
2026-05-07 18:46 53.54719 9.82057 2320 ft 133 kts 53°
2026-05-07 18:47 53.55312 9.83249 2139 ft 132 kts 54°
2026-05-07 18:47 53.55900 9.84430 1949 ft 131 kts 53°
2026-05-07 18:47 53.56483 9.85609 1784 ft 131 kts 53°
2026-05-07 18:47 53.57061 9.86790 1616 ft 131 kts 53°
2026-05-07 18:48 53.57635 9.87976 1444 ft 130 kts 53°
2026-05-07 18:48 53.58220 9.89103 1278 ft 130 kts 52°
2026-05-07 18:48 53.58804 9.90266 1020 ft 130 kts 51°
2026-05-07 18:48 53.59379 9.91422 838 ft 129 kts 51°
2026-05-07 18:49 53.59952 9.92590 670 ft 130 kts 51°
2026-05-07 18:49 53.60520 9.93773 488 ft 131 kts 49°
2026-05-07 18:49 53.61113 9.94923 351 ft 130 kts 51°
2026-05-07 18:49 53.61693 9.96096 160 ft 129 kts 51°
2026-05-07 18:50 53.62262 9.97243 48 ft 127 kts 50°
2026-05-07 18:50 53.62724 9.98195 50 ft 80 kts 51°
2026-05-07 18:50 53.63017 9.98781 49 ft 56 kts 50°
2026-05-07 18:50 53.63090 9.99173 50 ft 18 kts 96°
2026-05-07 18:51 53.63089 9.99192 50 ft 0 kts 96°
2026-05-07 18:51 53.63089 9.99193 50 ft 1 kts 96°
2026-05-07 18:51 53.63085 9.99319 50 ft 11 kts 85°
2026-05-07 18:51 53.63089 9.99352 50 ft 0 kts 77°
2026-05-07 18:52 53.63089 9.99355 50 ft 3 kts 77°
2026-05-07 18:52 53.63137 9.99492 50 ft 21 kts 52°
2026-05-07 18:52 53.63211 9.99647 50 ft 0 kts 50°
2026-05-07 18:53 53.63216 9.99657 50 ft 0 kts 50°
2026-05-07 18:53 53.63227 9.99706 50 ft 16 kts 83°
2026-05-07 18:53 53.63142 9.99830 50 ft 11 kts 141°
2026-05-07 18:54 53.63030 9.99932 50 ft 17 kts 153°
2026-05-07 18:54 53.62953 10.00004 48 ft 5 kts 137°
2026-05-07 18:54 53.62943 10.00059 50 ft 7 kts 103°
2026-05-07 18:54 53.62917 10.00144 51 ft 8 kts 122°
2026-05-07 18:55 53.62897 10.00200 66 ft 2 kts 121°
2026-05-07 18:55 53.62892 10.00214 55 ft 0 kts 122°